This demonstration page uses our WeatherBlox Daily Observations layout. Learn more.

Left ArrowRight Arrow

34.16533, -84.80231

Hourly Observations for October 14, 2015

Temp ( °F °C ) Dew Point ( °F °C ) Humidity (%) Winds ( mph kmh ) Pressure ( in mb ) Visibility ( mi km ) Precip ( " mm )
12:53 am 00:53 Clear 52 11.1 49 9.4 89 89 Calm 29.92 1013 10 16 0.00 0.00
1:53 am 01:53 Clear 50 10 48 8.9 93 93 Calm 29.91 1013 10 16 0.00 0.00
2:53 am 02:53 Clear 47 8.3 46 7.8 97 97 Calm 29.91 1013 10 16 0.00 0.00
3:53 am 03:53 Clear 47 8.3 46 7.8 97 97 Calm 29.91 1013 10 16 0.00 0.00
4:53 am 04:53 Clear 47 8.3 46 7.8 97 97 Calm 29.91 1013 10 16 0.00 0.00
5:53 am 05:53 Clear 47 8.3 45 7.2 93 93 Calm 29.93 1014 10 16 0.00 0.00
6:53 am 06:53 Clear 46 7.8 45 7.2 96 96 Calm 29.95 1014 10 16 0.00 0.00
7:53 am 07:53 Sunny 44 6.7 44 6.7 100 100 Calm 29.99 1016 10 16 0.00 0.00
8:53 am 08:53 Sunny 51 10.6 49 9.4 92 92 Calm 30.01 1016 10 16 0.00 0.00
9:53 am 09:53 Sunny 57 13.9 50 10 78 78 undefined N/A 30.02 1017 10 16 0.00 0.00
10:53 am 10:53 Sunny 63 17.2 50 10 63 63 VRB 3 6 30.03 1017 10 16 0.00 0.00
11:53 am 11:53 Sunny 69 20.6 52 11.1 55 55 Calm 30.02 1017 10 16 0.00 0.00
12:53 pm 12:53 Sunny 72 22.2 47 8.3 41 41 VRB 5 7 30.02 1017 10 16 0.00 0.00
1:53 pm 13:53 Sunny 74 23.3 46 7.8 37 37 VRB 3 6 30.01 1016 10 16 0.00 0.00
2:53 pm 14:53 Sunny 75 23.9 47 8.3 37 37 VRB 6 9 29.98 1015 10 16 0.00 0.00
3:53 pm 15:53 Sunny 76 24.4 48 8.9 37 37 VRB 3 6 29.98 1015 10 16 0.00 0.00
4:53 pm 16:53 Sunny 75 23.9 48 8.9 39 39 Calm 29.97 1015 10 16 0.00 0.00
5:53 pm 17:53 Sunny 73 22.8 49 9.4 43 43 Calm 29.97 1015 10 16 0.00 0.00
6:53 pm 18:53 Sunny 61 16.1 55 12.8 81 81 Calm 29.98 1015 10 16 0.00 0.00
7:53 pm 19:53 Clear 56 13.3 54 12.2 93 93 Calm 30.01 1016 10 16 0.00 0.00
8:53 pm 20:53 Clear 54 12.2 52 11.1 93 93 Calm 30.03 1017 10 16 0.00 0.00
9:53 pm 21:53 Clear 53 11.7 51 10.6 93 93 Calm 30.03 1017 10 16 0.00 0.00
10:53 pm 22:53 Clear 52 11.1 51 10.6 97 97 Calm 30.03 1017 10 16 0.00 0.00
11:53 pm 23:53 Clear 51 10.6 50 10 96 96 Calm 30.04 1017 10 16 0.00 0.00

Powered by AerisWeather